GLOBALSTAR M082

Last updated on Sun Jun 21 2026 00:03:18 GMT+0000 (Coordinated Universal Time)

1 38042U 11080C 26171.20887123 -.00000091 00000+0 72167-4 0 9992 2 38042 52.0100 325.3040 0000512 101.3544 69.1461 12.62263688669978
UTC large
Height (km)
Speed (km/s)
/
Latitude / Longitude
Inclination (degrees)
Orbital Period (minutes)
Azimuth
Elevation
Range (km)
Doppler Factor

Next 0 passes for location: London (51.5072 / 0.1276)

No passes found over London.
GLOBALSTAR M082